Location: Newark
(48.1383°N, 97.9933°W)
Time: 20:24:15
(UTC+00:00)

ISS - Visible Passes

Search period start: 23 September 2020 00:00
Search period end: 03 October 2020 00:00
Orbit: 419 x 420 km, 51.6° (Epoch: 24 September)

Date Brightness Start Highest point End Pass type
(mag) Time Alt. Az. Time Alt. Az. Time Alt. Az.
23 Sep -3.4 01:52:37 10° W 01:55:59 64° NNW 01:57:47 25° ENE visible
23 Sep -0.8 03:29:51 10° WNW 03:30:45 17° WNW 03:30:45 17° WNW visible
24 Sep -3.7 01:05:12 10° WSW 01:08:34 83° NNW 01:11:58 10° ENE visible
24 Sep -2.6 02:42:23 10° WNW 02:45:13 41° NNW 02:45:13 41° NNW visible
25 Sep -3.0 01:54:53 10° W 01:58:10 46° N 01:59:38 27° NE visible
25 Sep -0.6 03:31:59 10° WNW 03:32:35 14° WNW 03:32:35 14° WNW visible
26 Sep -3.1 01:07:23 10° W 01:10:41 52° NNW 01:14:01 10° ENE visible
26 Sep -2.3 02:44:34 10° WNW 02:46:58 37° NW 02:46:58 37° NW visible
27 Sep -3.0 01:57:06 10° WNW 02:00:22 44° N 02:01:19 34° NE visible
27 Sep -0.3 03:34:00 10° WNW 03:34:16 12° WNW 03:34:16 12° WNW visible
28 Sep -2.9 01:09:36 10° WNW 01:12:51 44° N 01:15:39 13° ENE visible
28 Sep -2.0 02:46:35 10° WNW 02:48:37 33° WNW 02:48:37 33° WNW visible
29 Sep -3.5 01:59:09 10° WNW 02:02:29 56° NNE 02:02:57 50° NE visible
30 Sep -3.2 01:11:41 10° WNW 01:14:58 48° N 01:17:18 17° E visible
30 Sep -1.6 02:48:33 10° WNW 02:50:16 27° WNW 02:50:16 27° WNW visible
01 Oct -3.9 02:01:04 10° WNW 02:04:28 88° SSW 02:04:38 80° ESE visible
02 Oct -3.7 01:13:37 10° WNW 01:17:00 70° NNE 01:19:02 22° E visible
02 Oct -1.2 02:50:40 10° W 02:52:00 19° W 02:52:00 19° W visible
